Regional Weather Roundup
Issued by NWS

Home | Current Version | Previous Version | Text Only | Print | Product List | Glossary On
Versions: 1 2 3 4 5 6 7 8 9 10 11 12 13 14 15 16 17 18 19 20 21 22 23 24 25 26 27 28 29 30 31 32 33 34 35 36 37 38 39 40 41 42 43 44 45 46 47 48 49 50
000
ASUS45 KTFX 221810
RWRMT
MONTANA REGIONAL WEATHER ROUNDUP
NATIONAL WEATHER SERVICE GREAT FALLS MT
1100 AM MST WED FEB 22 2017

NOTE: "FAIR" INDICATES FEW OR NO CLOUDS BELOW 12000 FEET WITH NO
SIGNIFICANT WEATHER AND/OR OBSTRUCTIONS TO VISIBILITY.

MTZ001>007-043-221900-
WEST OF THE DIVIDE

CITY           SKY/WX    TMP DP  RH WIND       PRES   REMARKS
KALISPELL      PTSUNNY   33  28  81 CALM      29.96S
MISSOULA       PTSUNNY   34  33  96 SW3       29.98S
BUTTE          CLOUDY    31  23  72 E3        29.90S
MULLAN PASS    SNOW      27  24  89 CALM      29.89S VSB 1/4
ANACONDA         N/A     34  23  64 E3        29.90F
DEER LODGE       N/A     34  27  75 CALM      29.94F
EUREKA           N/A     30  28  93 CALM      30.00S
HAMILTON         N/A     39  28  65 CALM      29.95F
PLAINS           N/A     35  30  82 CALM      30.00S
RONAN            N/A     39  33  79 CALM      30.01S
$$

MTZ008-052>055-221900-
SOUTHWEST MONTANA

CITY           SKY/WX    TMP DP  RH WIND       PRES   REMARKS
BOZEMAN        CLOUDY    34  29  82 E5        29.92F
DILLON         CLOUDY    35  18  49 W9        29.88F WCI  28
W YELLOWSTONE  CLOUDY    25  19  80 SW13      29.90S WCI  13
ENNIS          PTSUNNY   32  21  64 CALM      29.94S
THREE FORKS      N/A     40  40 100 CALM      29.92S
TWIN BRIDGES     N/A     36  18  48 S7        29.90F WCI  30
$$

MTZ009-010-012-014-046-048-049-054-221900-
EAST SLOPES AND CENTRAL MONTANA

CITY           SKY/WX    TMP DP  RH WIND       PRES   REMARKS
CUT BANK       CLOUDY    29  26  89 N14       29.90R WCI  18
GREAT FALLS    CLOUDY    36  29  75 CALM      29.89R
HELENA         CLOUDY    39  23  52 W10       29.91R
AUGUSTA          N/A     32  25  73 NW9       29.87R WCI  24
CHOTEAU          N/A     36  28  75 NW6       29.90S WCI  31
CONRAD           N/A     31  28  88 MISG      29.93R
RAYNESFORD     LGT SNOW  32  30  92 W12       29.90R WCI  23
$$

MTZ011-013-016-021-045-047-050-051-221900-
NORTH CENTRAL MONTANA

CITY           SKY/WX    TMP DP  RH WIND       PRES   REMARKS
HAVRE          LGT SNOW  33  32  96 NE6       29.93R FOG     WCI  28
LEWISTOWN      LGT SNOW  31  30  96 W7        29.87S FOG     WCI  24
N BAR RANCH    CLOUDY    30  28  93 E3        29.89R FOG
CHINOOK          N/A     34  32  93 E6        29.95R WCI  29
FORT BENTON      N/A     37  34  87 CALM      29.92R
GEYSER         FLURRIES  32  30  90 W14       29.88R WCI  22
JUDITH GAP     LGT SNOW  30  29  95 N17       29.86R FOG     WCI  18
STANFORD       LGT SNOW  31  31  97 NW12      29.87R WCI  22
$$

MTZ017>020-022>027-061-062-221900-
NORTHEAST MONTANA

CITY           SKY/WX    TMP DP  RH WIND       PRES   REMARKS
GLASGOW        CLOUDY    31  26  82 VRB5      29.94R HAZE
JORDAN           N/A     32  28  85 CALM      29.91S
SIDNEY         CLOUDY    32  28  85 N13       29.91R WCI  22
WOLF POINT     CLOUDY    34  24  67 N13       29.94S WCI  25
PLENTYWOOD       N/A     30  25  80 N9        29.92R WCI  22
POPLAR           N/A     30  25  80 N9        29.94R WCI  22
SCOBEY           N/A     31  17  56 N8        29.90R WCI  24
$$

MTZ028>42-056>058-221900-
SOUTHCENTRAL AND SOUTHEAST MONTANA

CITY           SKY/WX    TMP DP  RH WIND       PRES   REMARKS
BAKER          CLOUDY    32  30  92 N13       29.85R WCI  22
BILLINGS       CLOUDY    38  31  76 N9        29.90R WCI  31
LIVINGSTON     CLOUDY    37  23  56 W17       29.89R WCI  27
MILES CITY     LGT SNOW  34  32  92 N9        29.90R FOG     WCI  27
BIG TIMBER     MOSUNNY   37  25  60 W23G30    29.89S WCI  26
FORSYTH          N/A     34  34 100 N7        29.91R WCI  28
LAUREL           N/A     40  26  57 NW7       29.89R
$$

REGIONAL REPORTS...DAKOTAS

CITY           SKY/WX    TMP DP  RH WIND       PRES   REMARKS
WILLISTON      CLOUDY    31  26  82 N8        29.91R WCI  23
MINOT          CLOUDY    33  28  81 N16       29.85R WCI  23
DICKINSON      LGT SNOW  30  27  88 N13       29.81R FOG     WCI  20
BEACH            N/A    N/A N/A N/A MISG        N/A
CROSBY         PTSUNNY   32  28  86 N9        29.93R WCI  24
TIOGA          CLOUDY    28  28 100 N12       29.90R WCI  18
WATFORD CITY   CLOUDY    30  28  93 N13       29.89R WCI  20
BISMARCK       LGT SNOW  35  32  88 N13       29.79R FOG     WCI  26
GRAND FORKS    CLOUDY    35  28  75 N21       29.77R WCI  24
FARGO          LGT RAIN  36  34  92 N15       29.69R FOG     WCI  27
BUFFALO SD       N/A     37  33  85 NW21      29.73R WCI  26
RAPID CITY     SUNNY     55  22  27 NW28G36   29.74F
$$

REGIONAL REPORTS...WYOMING/IDAHO/WASHINGTON

CITY           SKY/WX    TMP DP  RH WIND       PRES   REMARKS
GILLETTE       SUNNY     43  26  51 NW21      29.84S
SHERIDAN       PTSUNNY   41  27  57 NW13G26   29.85S
BUFFALO WY     MOSUNNY   41  25  53 N20G25    29.85R
CODY           SUNNY     39  15  37 W12       29.86R WCI  32
YELLOWSTONE LA   N/A     22  16  78 CALM      29.89S
IDAHO FALLS    MOSUNNY   33  27  78 SW15      29.96F WCI  23
SALMON         PTSUNNY   36  28  75 NE5       29.93F
BOISE          PTSUNNY   40  27  59 W7        29.98F
SPOKANE        CLOUDY    32  29  88 SW5       30.05R FOG
$$

REGIONAL REPORTS...ALBERTA

CITY           SKY/WX    TMP DP  RH WIND       PRES   REMARKS
EDMONTON       CLOUDY    27  19  74 W6        30.00R WCI  20
CALGARY        LGT SNOW  27  21  80 N10       29.95R WCI  17
LETHBRIDGE     CLOUDY    30  30 100 NW10      29.94R FOG     WCI  21
MEDICINE HAT   CLOUDY    36  30  80 NE3       29.93S
WATERTON GATE    N/A     25  23  93 NE3         N/A
CARDSTON         N/A     27  25  93 N8          N/A  WCI  18
MILK RIVER       N/A     28  28 100 NW15        N/A  WCI  17
ONEFOUR          N/A     30  28  93 SE6         N/A  WCI  24
$$

REGIONAL REPORTS...SASKATCHEWAN

CITY           SKY/WX    TMP DP  RH WIND       PRES   REMARKS
SWIFT CURRENT  MOSUNNY   34  27  75 NW7       29.90S WCI  28
REGINA         PTSUNNY   32  27  80 W13       29.92R WCI  22
SASKATOON      CLOUDY    28  25  86 N9        29.95R WCI  20
CYPRESS HILLS    N/A     32  19  59 SE3         N/A
VAL MARIE        N/A     32  25  74 N7          N/A  WCI  26
ROCKGLEN         N/A     28  21  74 N9          N/A  WCI  20
ASSINIBOIA       N/A     27  19  74 W6          N/A  WCI  20
$$



USA.gov is the U.S. government's official web portal to all federal, state and local government web resources and services.